Weather History for Split Airport, Croatia

Change the Weather History Date:

Saturday, October 6, 2012

  Actual Average Record
Temperature  
Mean Temperature 68 °F -  
Max Temperature 77 °F - - ()
Min Temperature 58 °F - - ()
Cooling Degree Days 2    
Growing Degree Days 18 (Base 50)    
Moisture  
Dew Point 58 °F    
Average Humidity 73    
Maximum Humidity 88    
Minimum Humidity 48    
Precipitation  
Precipitation 0.00 in - - ()
Sea Level Pressure  
Sea Level Pressure 30.12 in    
Wind  
Wind Speed 3 mph ()    
Max Wind Speed 8 mph    
Max Gust Speed -    
Visibility 16.2 miles    
Events      
T = Trace of Precipitation, MM = Missing Value Source: Averaged Metar Reports

Daily Weather History Graph

Daily Weather History Graph

Search for Another Location

Airport:

Trip Planner

Search our weather history database for the weather conditions in past years. The results will help you decide how hot, cold, wet, or windy it might be!

Date:

Astronomy

Oct. 06, 2012 Rise Set
Actual Time 6:58 AM CEST 6:26 PM CEST
Civil Twilight 6:29 AM CEST 6:55 PM CEST
Nautical Twilight 5:56 AM CEST 7:28 PM CEST
Astronomical Twilight 5:23 AM CEST 8:01 PM CEST
Moon 10:18 PM CEST (10/6) 12:47 PM CEST (10/6)
Length of Visible Light 12h 25m
Length of Day
11h 28m
Waning Gibbous, 68% of the Moon is Illuminated
Oct 6
Waning Gibbous
Oct 8
Last Quarter
Oct 15
New
Oct 22
First Quarter
Oct 29
Full

Hourly Weather History & Observations

Time (CEST) Temp. Dew Point Humidity Pressure Visibility Wind Dir Wind Speed Gust Speed Precip Events Conditions
12:00 AM 64.4 °F 57.2 °F 77% 30.12 in - NW 4.6 mph - N/A   Clear
12:30 AM 64.4 °F 57.2 °F 77% 30.12 in - Variable 3.5 mph - N/A   Clear
1:00 AM 62.6 °F 55.4 °F 77% 30.12 in - Calm Calm - N/A   Clear
1:30 AM 64.4 °F 55.4 °F 73% 30.12 in - Calm Calm - N/A   Clear
2:00 AM 63 °F 55 °F 67% 30.14 in 19 mi Calm Calm - -  
2:00 AM 62.6 °F 55.4 °F 77% 30.12 in - Calm Calm - N/A   Clear
2:30 AM 62.6 °F 55.4 °F 77% 30.12 in - Variable 1.2 mph - N/A   Clear
3:00 AM 62.6 °F 55.4 °F 77% 30.12 in - Variable 3.5 mph - N/A   Clear
3:30 AM 60.8 °F 53.6 °F 77% 30.12 in - Variable 3.5 mph - N/A   Clear
4:00 AM 60.8 °F 53.6 °F 77% 30.12 in - Variable 3.5 mph - N/A   Clear
4:30 AM 60.8 °F 55.4 °F 82% 30.12 in - Variable 3.5 mph - N/A   Clear
5:00 AM 60 °F 54 °F 76% 30.14 in 19 mi NNW 4.5 mph - -  
5:00 AM 59.0 °F 55.4 °F 88% 30.12 in - Variable 3.5 mph - N/A   Clear
5:30 AM 59.0 °F 53.6 °F 82% 30.12 in - Variable 2.3 mph - N/A   Clear
6:00 AM 59.0 °F 53.6 °F 82% 30.12 in - Calm Calm - N/A   Clear
6:30 AM 59.0 °F 53.6 °F 82% 30.12 in - NNW 4.6 mph - N/A   Clear
7:00 AM 59.0 °F 53.6 °F 82% 30.12 in - Variable 1.2 mph - N/A   Clear
7:30 AM 59.0 °F 53.6 °F 82% 30.12 in - Calm Calm - N/A   Clear
8:00 AM 60 °F 55 °F 79% 30.15 in 19 mi Calm Calm - -   Clear
8:00 AM 59.0 °F 55.4 °F 88% 30.12 in - Calm Calm - N/A   Clear
8:30 AM 64.4 °F 59.0 °F 83% 30.15 in - Variable 1.2 mph - N/A   Clear
9:00 AM 68.0 °F 60.8 °F 78% 30.15 in - Variable 2.3 mph - N/A   Clear
9:30 AM 68.0 °F 59.0 °F 73% 30.15 in - Variable 3.5 mph - N/A   Clear
10:00 AM 69.8 °F 59.0 °F 68% 30.15 in - Variable 3.5 mph - N/A   Clear
10:30 AM 71.6 °F 59.0 °F 64% 30.15 in - Variable 1.2 mph - N/A   Clear
11:00 AM 72 °F 59 °F 55% 30.17 in 25 mi SE 2.2 mph - -   Clear
11:00 AM 71.6 °F 59.0 °F 64% 30.15 in - Variable 1.2 mph - N/A   Clear
11:30 AM 73.4 °F 59.0 °F 61% 30.15 in - Variable 1.2 mph - N/A   Clear
12:00 PM 73.4 °F 59.0 °F 61% 30.15 in - Variable 1.2 mph - N/A   Clear
12:30 PM 75.2 °F 59.0 °F 57% 30.15 in - Variable 1.2 mph - N/A   Clear
1:00 PM 75.2 °F 60.8 °F 61% 30.15 in - Variable 2.3 mph - N/A   Clear
1:30 PM 75.2 °F 60.8 °F 61% 30.12 in - SSW 5.8 mph - N/A   Clear
2:00 PM 77 °F 61 °F 48% 30.14 in 31 mi SW 6.7 mph - -   Clear
2:00 PM 77.0 °F 60.8 °F 57% 30.12 in - SW 6.9 mph - N/A   Clear
2:30 PM 77.0 °F 60.8 °F 57% 30.12 in - South 6.9 mph - N/A   Clear
3:00 PM 77.0 °F 59.0 °F 54% 30.12 in - SW 8.1 mph - N/A   Clear
3:30 PM 77.0 °F 59.0 °F 54% 30.12 in - SW 6.9 mph - N/A   Clear
4:00 PM 77.0 °F 59.0 °F 54% 30.12 in - SW 6.9 mph - N/A   Clear
4:30 PM 75.2 °F 59.0 °F 57% 30.09 in - SSW 5.8 mph - N/A   Clear
5:00 PM 75 °F 63 °F 57% 30.11 in 31 mi SSW 6.7 mph - -   Clear
5:00 PM 75.2 °F 62.6 °F 65% 30.09 in - SSW 5.8 mph - N/A   Clear
5:30 PM 75.2 °F 64.4 °F 69% 30.09 in - SSW 5.8 mph - N/A   Clear
6:00 PM 73.4 °F 64.4 °F 73% 30.09 in - SSW 4.6 mph - N/A   Clear
6:30 PM 71.6 °F 64.4 °F 78% 30.09 in - Variable 2.3 mph - N/A   Clear
7:00 PM 68.0 °F 62.6 °F 83% 30.09 in - Variable 2.3 mph - N/A   Clear
7:30 PM 68.0 °F 60.8 °F 78% 30.09 in - Calm Calm - N/A   Clear
8:00 PM 67 °F 61 °F 74% 30.12 in 12 mi NNW 4.5 mph - -  
8:00 PM 66.2 °F 60.8 °F 83% 30.09 in - NNW 4.6 mph - N/A   Clear
8:30 PM 66.2 °F 60.8 °F 83% 30.12 in - NNW 4.6 mph - N/A   Clear
9:00 PM 64.4 °F 59.0 °F 83% 30.12 in - Variable 2.3 mph - N/A   Clear
9:30 PM 64.4 °F 59.0 °F 83% 30.12 in - Variable 2.3 mph - N/A   Clear
10:00 PM 64.4 °F 59.0 °F 83% 30.12 in - North 4.6 mph - N/A   Clear
10:30 PM 64.4 °F 59.0 °F 83% 30.12 in - NNW 4.6 mph - N/A   Clear
11:00 PM 63 °F 58 °F 80% 30.12 in 12 mi NNW 2.2 mph - -  
11:00 PM 62.6 °F 59.0 °F 88% 30.12 in - Variable 2.3 mph - N/A   Clear
11:30 PM 62.6 °F 59.0 °F 88% 30.09 in - Variable 3.5 mph - N/A   Clear